Flag for U.S.A. Weather past 2 weeks in St. Petersburg, Florida, U.S.A.

Now
75 °F

Light rain. Mostly cloudy.


Feels Like: 74 °F
Forecast: 72 / 78 °F
Wind: 20 mph from East

Location: Whitted Airport

Current Time: Sep 20, 2014 at 2:08:59 AM

Latest Report: Sep 20, 2014 at 12:53 AM


Visibility: 10 mi

Pressure: 29.93 "Hg

Humidity: 88%

Dew point: 71 °F

Location of St. PetersburgLocation

Historic Weather in St. Petersburg — Graph

°F

St. Petersburg temperature yesterday

Maximum temperature yesterday: 82 °F (at 11:53 AM)
Minimum temperature yesterday: 73 °F (at 5:53 PM)
Average temperature yesterday: 78 °F

Past Weeks' High & Low Weather Summary

 TemperatureHumidityPressure
High93 °F (Sep 11, 4:53 PM)91% (Sep 17, 10:57 AM)30.15 "Hg (Sep 17, 10:57 AM)
Low73 °F (Sep 19, 5:53 PM)42% (Sep 11, 4:53 PM)29.85 "Hg (Sep 17, 4:53 PM)
Average82 °F75%30.00 "Hg
* Reported Sep 5 12:53 AM — Sep 20 12:53 AM, St. Petersburg, Weather by CustomWeather, © 2014

Note: Actual official high and low records may vary slightly from our data, if they occured in-between our weather recording intervals... More about our weather records

Advertising

St. Petersburg weather history for previous 24 hours

 ConditionsComfort  
Time TempWeatherWind HumidityBarometerVisibility
12:53 AM
Sep 20
75 °FLight rain. Mostly cloudy.20 mph88%29.93 "Hg10 mi
11:53 PM
Sep 19
74 °FLight rain. Mostly cloudy.17 mph91%29.96 "Hg10 mi
10:53 PM75 °FLight rain. Mostly cloudy.20 mph90%29.97 "Hg9 mi
9:53 PM75 °FHeavy rain. Fog.18 mph88%29.97 "Hg4 mi
8:52 PM74 °FLight rain. Fog.13 mph91%29.94 "Hg4 mi
7:53 PM74 °FLight rain. Fog.13 mph91%29.94 "Hg5 mi
7:04 PM74 °FHeavy rain. Fog.14 mph91%29.94 "Hg1 mi
6:53 PM73 °FHeavy rain. Fog.10 mph90%29.93 "Hg2 mi
5:53 PM73 °FHeavy rain. Fog.23 mph90%29.93 "Hg1 mi
4:53 PM79 °FLight rain. Cloudy.21 mph79%29.89 "Hg8 mi
3:53 PM80 °FLight rain. Partly sunny.14 mph87%29.89 "Hg10 mi
2:53 PM81 °FLight rain. Broken clouds.15 mph85%29.91 "Hg10 mi
1:53 PM81 °FLight rain. Broken clouds.9 mph79%29.93 "Hg7 mi
12:53 PM82 °FMore clouds than sun.7 mph74%29.96 "Hg10 mi
11:53 AM82 °FSunny.12 mph74%29.95 "Hg10 mi
10:53 AM81 °FSunny.10 mph74%29.95 "Hg10 mi
9:53 AM81 °FSunny.13 mph77%29.94 "Hg10 mi
8:53 AM80 °FPassing clouds.12 mph81%29.93 "Hg10 mi
7:53 AM79 °FClear.12 mph84%29.92 "Hg10 mi
6:53 AM80 °FClear.8 mph85%29.90 "Hg10 mi
5:53 AM79 °FClear.9 mph84%29.88 "Hg10 mi
4:53 AM80 °FClear.8 mph81%29.88 "Hg10 mi
3:53 AM80 °FClear.9 mph81%29.89 "Hg10 mi
2:53 AM81 °FClear.9 mph79%29.90 "Hg10 mi
Weather by CustomWeather, © 2014

See weather overviewHow to use our weather pages